Location: Neuvy Saint Sepulchre
(46.5953°N, 1.8122°E)
Time: 06:10:48
(UTC+01:00)

ISS - Pass Details

Date: 27 November 2023
Orbit: 416 x 417 km, 51.6° (Epoch: 01 December)

Event Time Altitude Azimuth Distance (km) Brightness Sun altitude
Rises 19:50:35 0° 295° (WNW) 2,363 1.0 -27.1°
Reaches altitude 10° 19:52:42 10° 300° (WNW) 1,498 -0.3 -27.5°
Enters shadow 19:53:36 17° 305° (NW) 1,152 -1.0 -27.6°
